国际通讯卫星 36 星 (INTELSAT 36 (IS-36))

导读

INTELSAT 36(国际通讯卫星36星)是由国际通信卫星组织(ITSO)运营的通信卫星,由美国劳拉空间系统公司建造,基于LS-1300平台,采用三轴稳定模式。该卫星于2016年8月24日发射,定位于地球静止轨道,目前已在轨运行近十年,状态稳定。它配备C波段和Ku波段转发器,为全球尤其欧洲、非洲和中东地区提供广播、宽带、企业通信服务,满足不断增长的带宽需求,支持数字电视与互联网服务扩展。

基本信息
目录编号:
41747
目录名称:
INTELSAT 36
国际标识:
2016-053A
轨道中心:
EARTH
卫星名称:
国际通讯卫星 36 星
卫星全名:
国际通讯卫星 36 星 (INTELSAT 36 (IS-36))
卫星状态:
在轨 (已飞行3670 天)
发射日期:
2016-08-24 UTC
国别 :
(ITSO)
星等 :
--
该卫星已列入 空间交会检测服务 Space Conjunction Data Service (SCDS) ,当前飞行风险评估等级: 无高风险
轨道信息
数据来源 国际轨道数据 AOE轨道数据
星历时间 2026-09-11T12:00:56+0800
8小时前
查看轨道信息
2026-09-09T05:00:00+0800
2天前
查看轨道信息
半长轴 42164.953km 42165.261km
偏心率 0.0001821 0.0001897
轨道倾角 0.019° 0.021°
近地点辐角 218.632° 225.053°
升交点赤经 129.657° 120.026°
平近点角 130.638° 26.354°
近地点 35779.137km 35779.125km
远地点 35794.495km 35795.123km
周期 1436.108分钟 1436.124分钟
每日圈数 1.00271 1.002699
详细信息
卫星平台:
LS-1300
平衡模式:
三轴稳定
覆盖范围:
全球
运营商:
国际卫星通信公司
运营商所在国:
美国
制造商(研发单位):
劳拉空间系统公司
制造商所在国:
美国
使用方式:
暂无
卫星简介
从1965年4月至1984年3月,国际通信卫星组织发射了5代、6种不同性能的卫星共计35颗,除6颗卫星因运载火箭和远地点发动机故障而发射失败外,其余29颗卫星均被送到了预定的静止轨道位置。1984年8月前后,国际通信卫星组织利用部署在大西洋、太平洋、印度洋上空的15颗国际通信卫星,为遍布世界各地170多个国家或地区提供电话、电传、电报、电视和数据传输等电信业务;该卫星仍在工作。
2D轨道图
3D轨道图
轨道高度分析图
轨道倾角分析图
轨道综合分析图
查看轨道综合分析图
与全量物体交会距离演化趋势
与全量物体交会风险概率演化趋势